Location: Chipmunk Meadow
(41.1540°N, 122.8814°W)
Time: 14:26:25
(UTC+00:00)

ARIANE 5 R/B - Pass Details

Date: 13 April 2024
Orbit: 747 x 793 km, 98.8° (Epoch: 21 May)

Event Time Altitude Azimuth Distance (km) Brightness Sun altitude
Rises 12:49:18 0° 19° (NNE) 3,301 6.4 -8.9°
Reaches altitude 10° 12:51:44 10° 25° (NNE) 2,368 5.8 -8.5°
Maximum altitude 12:56:47 48° 100° (E) 1,036 3.7 -7.6°
Drops below altitude 10° 13:01:47 10° 174° (S) 2,347 4.9 -6.7°
Sets 13:04:10 0° 180° (S) 3,268 5.6 -6.3°
